EW3958 Weather Reports


Display with metric or nautical units.
time (UTC)temp
F
wind
direction
speed
MPH
gust
MPH
rain 1hr
in
rain 24hr
in
rain mn
in
humidity
%
barometer
mb
20180522040513 65 158 7.0 10.0 0.00 0.00 0.00 80 1014.5
20180522040014 65 158 8.0 10.0 0.00 0.00 0.00 79 1014.1
20180522035513 65 157 8.0 12.0 0.00 0.00 0.00 78 1014.2
20180522035013 66 155 7.0 12.0 0.00 0.00 0.00 78 1014.1
20180522034514 66 155 6.0 11.0 0.00 0.00 0.00 77 1014.1
20180522034013 66 155 5.0 9.0 0.00 0.00 0.00 77 1014.1
20180522033514 66 159 4.0 9.0 0.00 0.00 0.00 77 1014.1
20180522033013 66 154 3.0 7.0 0.00 0.00 0.00 77 1014.0
20180522032514 66 148 2.0 6.0 0.00 0.00 0.00 77 1014.0
20180522032014 66 146 2.0 5.0 0.00 0.00 0.00 75 1013.9
20180522031513 66 144 2.0 4.0 0.00 0.00 0.00 75 1013.8
20180522031013 65 142 2.0 10.0 0.00 0.00 0.00 75 1013.8
20180522030514 65 141 1.0 10.0 0.00 0.00 0.00 75 1013.7
20180522030014 65 137 1.0 7.0 0.00 0.00 0.00 75 1013.7
20180522025514 65 125 0.0 7.0 0.00 0.00 0.00 74 1013.6
20180522025013 66 137 0.0 1.0 0.00 0.00 0.00 73 1013.6
20180522024513 66 135 0.0 3.0 0.00 0.00 0.00 72 1013.6
20180522024014 66 134 0.0 4.0 0.00 0.00 0.00 72 1013.5
20180522023513 66 134 0.0 4.0 0.00 0.00 0.00 71 1013.5
20180522023014 67 0 0.0 0.0 0.00 0.00 0.00 71 1013.4
20180522022514 67 0 0.0 0.0 0.00 0.00 0.00 70 1013.4
20180522022014 67 0 0.0 0.0 0.00 0.00 0.00 69 1013.4
20180522021514 67 0 0.0 0.0 0.00 0.00 0.00 70 1013.3
20180522021013 68 0 0.0 0.0 0.00 0.00 0.00 69 1013.3
20180522020513 68 122 0.0 4.0 0.00 0.00 0.00 69 1013.3
20180522020015 69 126 0.0 4.0 0.00 0.00 0.00 67 1013.1
20180522015513 69 129 0.0 3.0 0.00 0.00 0.00 66 1013.2
20180522015013 69 127 0.0 3.0 0.00 0.00 0.00 67 1013.2
20180522014514 69 146 0.0 1.0 0.00 0.00 0.00 65 1013.2
20180522014014 70 148 1.0 7.0 0.00 0.00 0.00 63 1013.2
20180522013513 71 150 3.0 7.0 0.00 0.00 0.00 62 1013.2
20180522013014 71 148 3.0 7.0 0.00 0.00 0.00 62 1013.1
20180522012513 71 148 3.0 8.0 0.00 0.00 0.00 61 1013.2
20180522012014 72 151 4.0 9.0 0.00 0.00 0.00 61 1013.4
20180522011514 72 155 6.0 11.0 0.00 0.00 0.00 59 1013.4
20180522011014 72 154 6.0 11.0 0.00 0.00 0.00 58 1013.3
20180522010513 72 149 4.0 8.0 0.00 0.00 0.00 59 1013.3
20180522010015 72 149 4.0 10.0 0.00 0.00 0.00 59 1013.2
20180522005513 72 151 6.0 11.0 0.00 0.00 0.00 58 1013.2
20180522005014 73 147 6.0 11.0 0.00 0.00 0.00 58 1013.1
20180522004514 73 142 7.0 11.0 0.00 0.00 0.00 57 1013.1
20180522004014 73 146 8.0 11.0 0.00 0.00 0.00 56 1013.0
20180522003514 73 149 8.0 12.0 0.00 0.00 0.00 55 1013.0
20180522003013 74 150 8.0 12.0 0.00 0.00 0.00 56 1013.0
20180522002514 74 148 7.0 12.0 0.00 0.00 0.00 55 1013.0
20180522002014 73 153 9.0 15.0 0.00 0.00 0.00 54 1013.0
20180522001514 74 156 11.0 17.0 0.00 0.00 0.00 53 1013.0
20180522001014 74 160 12.0 17.0 0.00 0.00 0.00 53 1013.0
20180522000514 74 163 12.0 17.0 0.00 0.00 0.00 54 1013.1
20180522000014 75 166 9.0 12.0 0.00 0.00 0.00 52 1012.9
20180521235513 74 176 7.0 13.0 0.00 0.00 0.00 53 1013.0
20180521235015 75 187 8.0 13.0 0.00 0.00 0.00 52 1013.0
20180521234513 74 188 9.0 15.0 0.00 0.00 0.00 53 1013.1
20180521234014 75 187 9.0 15.0 0.00 0.00 0.00 49 1013.0
20180521233513 75 185 9.0 13.0 0.00 0.00 0.00 49 1013.0
20180521233014 75 170 11.0 13.0 0.00 0.00 0.00 51 1013.1
20180521232514 75 168 10.0 13.0 0.00 0.00 0.00 48 1013.1
20180521232014 75 177 10.0 13.0 0.00 0.00 0.00 48 1013.1
20180521231513 75 174 9.0 13.0 0.00 0.00 0.00 48 1013.2
20180521231013 76 171 9.0 13.0 0.00 0.00 0.00 49 1013.2
20180521230513 75 178 11.0 16.0 0.00 0.00 0.00 49 1013.2
20180521230014 75 184 11.0 16.0 0.00 0.00 0.00 47 1013.2
20180521225514 76 182 12.0 18.0 0.00 0.00 0.00 49 1013.2
20180521225013 76 181 12.0 18.0 0.00 0.00 0.00 48 1013.1
20180521224514 76 184 11.0 17.0 0.00 0.00 0.00 48 1013.2
20180521224013 76 179 10.0 13.0 0.00 0.00 0.00 51 1013.3
20180521223513 76 172 10.0 15.0 0.00 0.00 0.00 49 1013.3
20180521223013 76 176 9.0 15.0 0.00 0.00 0.00 51 1013.3
20180521222514 76 173 9.0 13.0 0.00 0.00 0.00 49 1013.3
20180521222013 75 183 10.0 20.0 0.00 0.00 0.00 48 1013.4
20180521221513 76 188 9.0 20.0 0.00 0.00 0.00 48 1013.4
20180521221013 76 177 10.0 19.0 0.00 0.00 0.00 48 1013.6
20180521220513 76 174 11.0 19.0 0.00 0.00 0.00 47 1013.6
20180521220014 76 185 10.0 16.0 0.00 0.00 0.00 47 1013.6
20180521215513 76 200 9.0 15.0 0.00 0.00 0.00 48 1013.5
20180521215013 77 192 8.0 15.0 0.00 0.00 0.00 47 1013.6
20180521214513 76 160 7.0 15.0 0.00 0.00 0.00 46 1013.6
20180521214014 76 145 8.0 11.0 0.00 0.00 0.00 47 1013.7
20180521213514 76 156 9.0 13.0 0.00 0.00 0.00 47 1013.8
20180521213014 75 160 8.0 13.0 0.00 0.00 0.00 48 1013.9
20180521212513 75 155 8.0 13.0 0.00 0.00 0.00 48 1013.9
20180521212013 74 161 7.0 12.0 0.00 0.00 0.00 49 1014.0
20180521211513 75 172 8.0 15.0 0.00 0.00 0.00 47 1014.2
20180521211014 75 174 9.0 17.0 0.00 0.00 0.00 47 1014.2
20180521210513 74 170 9.0 17.0 0.00 0.00 0.00 53 1014.2
20180521210015 74 160 7.0 16.0 0.00 0.00 0.00 48 1014.1
20180521205513 76 150 5.0 15.0 0.00 0.00 0.00 47 1014.3
20180521205014 75 160 5.0 15.0 0.00 0.00 0.00 49 1014.2
20180521204513 73 167 7.0 13.0 0.00 0.00 0.00 51 1014.2
20180521204013 73 165 5.0 13.0 0.00 0.00 0.00 49 1014.3
20180521203513 73 164 5.0 12.0 0.00 0.00 0.00 52 1014.4
20180521203013 73 161 8.0 12.0 0.00 0.00 0.00 48 1014.4
20180521202513 74 163 8.0 12.0 0.00 0.00 0.00 48 1014.3
20180521202013 75 171 10.0 13.0 0.00 0.00 0.00 47 1014.4
20180521201514 74 169 9.0 13.0 0.00 0.00 0.00 51 1014.4
20180521201013 74 162 8.0 12.0 0.00 0.00 0.00 47 1014.4
20180521200514 75 170 5.0 15.0 0.00 0.00 0.00 49 1014.6
20180521200014 74 185 6.0 15.0 0.00 0.00 0.00 49 1014.7
20180521195513 72 186 6.0 13.0 0.00 0.00 0.00 48 1014.6
20180521195014 74 177 7.0 13.0 0.00 0.00 0.00 49 1014.6
20180521194513 74 165 7.0 12.0 0.00 0.00 0.00 46 1014.7
20180521194013 73 155 7.0 16.0 0.00 0.00 0.00 48 1014.7
20180521193514 73 151 7.0 16.0 0.00 0.00 0.00 46 1014.8
20180521193013 74 157 5.0 13.0 0.00 0.00 0.00 47 1014.8
20180521192513 72 172 6.0 12.0 0.00 0.00 0.00 47 1014.8
20180521192014 73 168 8.0 13.0 0.00 0.00 0.00 47 1015.0
20180521191513 73 165 5.0 13.0 0.00 0.00 0.00 48 1015.0
20180521191013 73 173 6.0 16.0 0.00 0.00 0.00 47 1015.2
20180521190513 73 177 9.0 16.0 0.00 0.00 0.00 46 1015.2
20180521190014 72 171 11.0 17.0 0.00 0.00 0.00 48 1015.1
20180521185513 73 161 10.0 17.0 0.00 0.00 0.00 46 1015.1
20180521185012 73 162 6.0 13.0 0.00 0.00 0.00 48 1015.2
20180521184513 73 171 3.0 10.0 0.00 0.00 0.00 44 1015.3
20180521184013 73 168 1.0 8.0 0.00 0.00 0.00 47 1015.3
20180521183513 72 162 2.0 10.0 0.00 0.00 0.00 45 1015.3
20180521183013 72 159 4.0 15.0 0.00 0.00 0.00 44 1015.5
20180521182513 72 161 6.0 15.0 0.00 0.00 0.00 44 1015.5
20180521182013 72 167 5.0 13.0 0.00 0.00 0.00 44 1015.5
20180521181512 72 154 4.0 13.0 0.00 0.00 0.00 51 1015.6
20180521181013 72 158 6.0 16.0 0.00 0.00 0.00 47 1015.7
20180521180513 72 167 6.0 16.0 0.00 0.00 0.00 45 1015.7
20180521180014 71 163 4.0 12.0 0.00 0.00 0.00 45 1015.7
20180521175513 71 168 2.0 9.0 0.00 0.00 0.00 48 1015.7
20180521175013 70 162 3.0 11.0 0.00 0.00 0.00 48 1015.7
20180521174513 70 168 4.0 11.0 0.00 0.00 0.00 45 1015.8
20180521174013 70 173 5.0 11.0 0.00 0.00 0.00 46 1015.9
20180521173513 70 151 4.0 10.0 0.00 0.00 0.00 47 1015.8
20180521173013 70 138 3.0 9.0 0.00 0.00 0.00 49 1015.7
20180521172512 70 151 2.0 9.0 0.00 0.00 0.00 49 1015.8
20180521172012 70 146 2.0 9.0 0.00 0.00 0.00 49 1015.8
20180521171512 69 144 3.0 9.0 0.00 0.00 0.00 46 1015.9
20180521171013 70 145 2.0 9.0 0.00 0.00 0.00 52 1015.9
20180521170512 69 155 1.0 8.0 0.00 0.00 0.00 52 1016.0
20180521170013 68 157 3.0 8.0 0.00 0.00 0.00 54 1015.8
20180521165512 69 154 4.0 8.0 0.00 0.00 0.00 52 1015.8
20180521165013 69 153 1.0 7.0 0.00 0.00 0.00 53 1015.9
20180521164513 68 188 1.0 8.0 0.00 0.00 0.00 58 1016.0
20180521164012 68 151 3.0 8.0 0.00 0.00 0.00 55 1016.1
20180521163513 68 125 1.0 8.0 0.00 0.00 0.00 58 1016.2
20180521163013 68 144 1.0 6.0 0.00 0.00 0.00 59 1016.2
20180521162512 67 146 1.0 6.0 0.00 0.00 0.00 60 1016.2
20180521162013 66 162 0.0 4.0 0.00 0.00 0.00 63 1016.2
20180521161513 65 161 1.0 7.0 0.00 0.00 0.00 57 1016.3
20180521161013 66 161 1.0 7.0 0.00 0.00 0.00 61 1016.4
20180521160513 66 0 0.0 0.0 0.00 0.00 0.00 62 1016.5
20180521160014 66 169 0.0 2.0 0.00 0.00 0.00 65 1016.6
20180521155513 65 169 2.0 4.0 0.00 0.00 0.00 66 1016.4
20180521155013 65 169 2.0 4.0 0.00 0.00 0.00 63 1016.4
20180521154514 64 171 2.0 5.0 0.00 0.00 0.00 64 1016.6
20180521154013 64 172 2.0 5.0 0.00 0.00 0.00 62 1016.6
20180521153513 64 175 0.0 4.0 0.00 0.00 0.00 67 1016.6
20180521153013 63 181 2.0 6.0 0.00 0.00 0.00 69 1016.6
20180521152513 62 181 1.0 6.0 0.00 0.00 0.00 67 1016.6
20180521152013 63 0 0.0 0.0 0.00 0.00 0.00 67 1016.6
20180521151513 63 201 0.0 3.0 0.00 0.00 0.00 67 1016.7
20180521151013 63 206 2.0 5.0 0.00 0.00 0.00 72 1016.8
20180521150513 62 207 3.0 5.0 0.00 0.00 0.00 70 1016.9
20180521150013 61 213 2.0 5.0 0.00 0.00 0.00 69 1016.9
20180521145513 62 231 2.0 7.0 0.00 0.00 0.00 71 1017.0
20180521145013 61 224 4.0 7.0 0.00 0.00 0.00 71 1017.0
20180521144513 61 220 2.0 6.0 0.00 0.00 0.00 74 1017.2
20180521144012 60 184 0.0 5.0 0.00 0.00 0.00 74 1017.2
20180521143512 60 183 0.0 5.0 0.00 0.00 0.00 73 1017.1
20180521143013 59 182 0.0 3.0 0.00 0.00 0.00 74 1017.1
20180521142512 58 168 0.0 1.0 0.00 0.00 0.00 74 1017.2
20180521142012 58 167 1.0 5.0 0.00 0.00 0.00 81 1017.2
20180521141512 57 166 2.0 5.0 0.00 0.00 0.00 79 1017.3
20180521141013 56 163 1.0 5.0 0.00 0.00 0.00 80 1017.5
20180521140512 56 161 1.0 4.0 0.00 0.00 0.00 83 1017.6
20180521140012 55 149 0.0 1.0 0.00 0.00 0.00 83 1017.5
20180521135512 54 0 0.0 0.0 0.00 0.00 0.00 85 1017.3
20180521135012 53 0 0.0 0.0 0.00 0.00 0.00 85 1017.4
20180521134512 53 149 0.0 1.0 0.00 0.00 0.00 86 1017.4
20180521134012 52 149 0.0 1.0 0.00 0.00 0.00 86 1017.4
20180521133512 52 149 0.0 1.0 0.00 0.00 0.00 88 1017.4
20180521133012 51 0 0.0 0.0 0.00 0.00 0.00 89 1017.3
20180521132512 50 0 0.0 0.0 0.00 0.00 0.00 89 1017.3
20180521132013 49 0 0.0 0.0 0.00 0.00 0.00 90 1017.4
20180521131513 49 0 0.0 0.0 0.00 0.00 0.00 90 1017.4
20180521131012 48 0 0.0 0.0 0.00 0.00 0.00 90 1017.4
20180521130512 48 0 0.0 0.0 0.00 0.00 0.00 92 1017.3
20180521130012 48 149 0.0 1.0 0.00 0.00 0.00 92 1017.4
20180521125512 47 149 0.0 1.0 0.00 0.00 0.00 92 1017.5
20180521125013 47 0 0.0 0.0 0.00 0.00 0.00 92 1017.7
20180521124512 47 0 0.0 0.0 0.00 0.00 0.00 92 1017.5
20180521124012 46 0 0.0 0.0 0.00 0.00 0.00 93 1017.5
20180521123512 46 0 0.0 0.0 0.00 0.00 0.00 94 1017.5
20180521123012 46 135 0.0 1.0 0.00 0.00 0.00 94 1017.5
20180521122512 45 135 0.0 1.0 0.00 0.00 0.00 95 1017.5
20180521122013 44 0 0.0 0.0 0.00 0.00 0.00 95 1017.4
20180521121513 44 0 0.0 0.0 0.00 0.00 0.00 95 1017.5
20180521121013 44 0 0.0 0.0 0.00 0.00 0.00 95 1017.5
20180521120513 43 0 0.0 0.0 0.00 0.00 0.00 95 1017.5
20180521120013 43 0 0.0 0.0 0.00 0.00 0.00 95 1017.5
20180521115513 42 0 0.0 0.0 0.00 0.00 0.00 95 1017.7
20180521115013 42 0 0.0 0.0 0.00 0.00 0.00 95 1017.7
20180521114513 42 0 0.0 0.0 0.00 0.00 0.00 95 1017.6
20180521114013 42 0 0.0 0.0 0.00 0.00 0.00 95 1017.6
20180521113512 42 0 0.0 0.0 0.00 0.00 0.00 95 1017.6
20180521113013 42 0 0.0 0.0 0.00 0.00 0.00 95 1017.7
20180521112513 42 0 0.0 0.0 0.00 0.00 0.00 95 1017.7
20180521112013 42 0 0.0 0.0 0.00 0.00 0.00 95 1017.6
20180521111515 42 0 0.0 0.0 0.00 0.00 0.00 95 1017.7
20180521111013 42 0 0.0 0.0 0.00 0.00 0.00 95 1017.7
20180521110513 42 0 0.0 0.0 0.00 0.00 0.00 95 1017.7
20180521110012 42 0 0.0 0.0 0.00 0.00 0.00 95 1017.8
20180521105513 42 0 0.0 0.0 0.00 0.00 0.00 95 1017.8
20180521105013 42 0 0.0 0.0 0.00 0.00 0.00 95 1017.9
20180521104513 43 0 0.0 0.0 0.00 0.00 0.00 95 1017.8
20180521104012 42 0 0.0 0.0 0.00 0.00 0.00 95 1017.7
20180521103513 42 0 0.0 0.0 0.00 0.00 0.00 95 1017.7
20180521103013 42 0 0.0 0.0 0.00 0.00 0.00 94 1017.8
20180521102513 43 0 0.0 0.0 0.00 0.00 0.00 95 1017.8
20180521102013 43 0 0.0 0.0 0.00 0.00 0.00 94 1017.8
20180521101515 43 0 0.0 0.0 0.00 0.00 0.00 94 1017.8
20180521101013 43 0 0.0 0.0 0.00 0.00 0.00 94 1017.8
20180521100512 43 0 0.0 0.0 0.00 0.00 0.00 94 1017.8
20180521100013 43 0 0.0 0.0 0.00 0.00 0.00 94 1017.8
20180521095513 44 0 0.0 0.0 0.00 0.00 0.00 94 1017.8
20180521095013 44 0 0.0 0.0 0.00 0.00 0.00 94 1017.8
20180521094513 44 0 0.0 0.0 0.00 0.00 0.00 94 1017.7
20180521094013 44 0 0.0 0.0 0.00 0.00 0.00 94 1017.6
20180521093513 44 0 0.0 0.0 0.00 0.00 0.00 94 1017.6
20180521093013 44 0 0.0 0.0 0.00 0.00 0.00 94 1017.5
20180521092513 44 0 0.0 0.0 0.00 0.00 0.00 93 1017.5
20180521092013 45 0 0.0 0.0 0.00 0.00 0.00 93 1017.6
20180521091513 45 0 0.0 0.0 0.00 0.00 0.00 93 1017.4
20180521091013 45 0 0.0 0.0 0.00 0.00 0.00 93 1017.3
20180521090513 45 0 0.0 0.0 0.00 0.00 0.00 93 1017.3
20180521090013 45 135 0.0 1.0 0.00 0.00 0.00 93 1017.4
20180521085513 45 135 0.0 1.0 0.00 0.00 0.00 93 1017.4
20180521085013 46 0 0.0 0.0 0.00 0.00 0.00 93 1017.4
20180521084512 46 0 0.0 0.0 0.00 0.00 0.00 94 1017.4
20180521084013 46 0 0.0 0.0 0.00 0.00 0.00 93 1017.4
20180521083513 46 0 0.0 0.0 0.00 0.00 0.00 94 1017.4
20180521083013 46 0 0.0 0.0 0.00 0.00 0.00 93 1017.3
20180521082513 46 0 0.0 0.0 0.00 0.00 0.00 93 1017.3
20180521082013 46 0 0.0 0.0 0.00 0.00 0.00 93 1017.3
20180521081514 47 0 0.0 0.0 0.00 0.00 0.00 93 1017.3
20180521081013 47 0 0.0 0.0 0.00 0.00 0.00 93 1017.4
20180521080513 47 0 0.0 0.0 0.00 0.00 0.00 92 1017.5
20180521080013 47 0 0.0 0.0 0.00 0.00 0.00 92 1017.5
20180521075513 48 0 0.0 0.0 0.00 0.00 0.00 92 1017.8
20180521075014 48 0 0.0 0.0 0.00 0.00 0.00 92 1017.8
20180521074515 48 0 0.0 0.0 0.00 0.00 0.00 91 1017.8
20180521074014 49 0 0.0 0.0 0.00 0.00 0.00 90 1017.8
20180521073513 49 0 0.0 0.0 0.00 0.00 0.00 90 1017.9
20180521073014 49 0 0.0 0.0 0.00 0.00 0.00 90 1017.9
20180521072513 49 0 0.0 0.0 0.00 0.00 0.00 90 1017.9
20180521072013 49 0 0.0 0.0 0.00 0.00 0.00 89 1017.9
20180521071513 49 0 0.0 0.0 0.00 0.00 0.00 90 1017.9
20180521071013 49 0 0.0 0.0 0.00 0.00 0.00 89 1017.9
20180521070513 49 0 0.0 0.0 0.00 0.00 0.00 89 1017.9
20180521070014 50 0 0.0 0.0 0.00 0.00 0.00 89 1017.9
20180521065513 50 0 0.0 0.0 0.00 0.00 0.00 89 1018.0
20180521065013 50 0 0.0 0.0 0.00 0.00 0.00 89 1018.1
20180521064513 50 0 0.0 0.0 0.00 0.00 0.00 87 1018.3
20180521064013 50 0 0.0 0.0 0.00 0.00 0.00 88 1018.3
20180521063513 50 0 0.0 0.0 0.00 0.00 0.00 88 1018.4
20180521063013 50 0 0.0 0.0 0.00 0.00 0.00 88 1018.5
20180521062513 50 0 0.0 0.0 0.00 0.00 0.00 87 1018.5
20180521062013 50 0 0.0 0.0 0.00 0.00 0.00 86 1018.5
20180521061513 50 0 0.0 0.0 0.00 0.00 0.00 86 1018.5
20180521061013 50 0 0.0 0.0 0.00 0.00 0.00 86 1018.6
20180521060513 50 0 0.0 0.0 0.00 0.00 0.00 88 1018.7
20180521060013 50 0 0.0 0.0 0.00 0.00 0.00 86 1018.7
20180521055514 50 0 0.0 0.0 0.00 0.00 0.00 87 1018.7
20180521055013 50 0 0.0 0.0 0.00 0.00 0.00 87 1018.8
20180521054514 50 0 0.0 0.0 0.00 0.00 0.00 87 1018.9
20180521054013 51 0 0.0 0.0 0.00 0.00 0.00 84 1019.0
20180521053513 51 0 0.0 0.0 0.00 0.00 0.00 83 1019.0
20180521053013 51 0 0.0 0.0 0.00 0.00 0.00 86 1019.0
20180521052513 51 0 0.0 0.0 0.00 0.00 0.00 86 1019.0
20180521052013 51 0 0.0 0.0 0.00 0.00 0.00 85 1019.1
20180521051513 51 0 0.0 0.0 0.00 0.00 0.00 85 1019.1
20180521051013 51 0 0.0 0.0 0.00 0.00 0.00 85 1019.2
20180521050513 51 0 0.0 0.0 0.00 0.00 0.00 86 1019.2
20180521050014 51 0 0.0 0.0 0.00 0.00 0.00 86 1019.4
20180521045513 51 0 0.0 0.0 0.00 0.00 0.00 86 1019.5
20180521045013 51 0 0.0 0.0 0.00 0.00 0.00 85 1019.5
20180521044513 51 0 0.0 0.0 0.00 0.00 0.00 85 1019.5
20180521044013 51 0 0.0 0.0 0.00 0.00 0.00 85 1019.5
20180521043512 51 0 0.0 0.0 0.00 0.00 0.00 85 1019.5
20180521043013 51 0 0.0 0.0 0.00 0.00 0.00 84 1019.7
20180521042512 51 0 0.0 0.0 0.00 0.00 0.00 85 1019.7
20180521042013 51 0 0.0 0.0 0.00 0.00 0.00 87 1019.7
20180521041512 51 0 0.0 0.0 0.00 0.00 0.00 84 1019.7
20180521041012 51 0 0.0 0.0 0.00 0.00 0.00 85 1019.8